This demonstration page uses our WeatherBlox Daily Observations layout. Learn more.

40.92945, -100.16068

Hourly Observations for December 14, 2015

Temp ( °F °C ) Dew Point ( °F °C ) Humidity (%) Winds ( mph kmh ) Pressure ( in mb ) Visibility ( mi km ) Precip ( " mm )
12:15 am 00:15 Cloudy 36 2.1 33 0.6 90 90 N 20 31 29.5 999 10 16.0934 N/A
12:35 am 00:35 Cloudy 36 2.2 33 0.6 89 89 NNW 17 28 29.5 999 10 16.0934 N/A
12:55 am 00:55 Cloudy 36 2.2 33 0.5 89 89 NNW 18 30 29.5 999 10 16.0934 N/A
1:15 am 01:15 Cloudy 36 2.2 33 0.5 89 89 NNW 18 30 29.5 999 10 16.0934 N/A
1:35 am 01:35 Cloudy 36 2.2 33 0.5 89 89 N 21 33 29.5 999 10 16.0934 N/A
1:55 am 01:55 Cloudy 36 2.2 33 0.3 87 87 NNW 18 30 29.47 998 10 16.0934 N/A
2:15 am 02:15 Cloudy 36 2.1 32 0.2 87 87 NNW 18 30 29.47 998 10 16.0934 N/A
2:35 am 02:35 Cloudy 36 2 32 0.1 87 87 NNW 18 30 29.47 998 10 16.0934 N/A
2:55 am 02:55 Cloudy 35 1.7 32 0 89 89 NNW 18 30 29.47 998 10 16.0934 N/A
3:15 am 03:15 Cloudy 35 1.6 32 0 89 89 NNW 16 26 29.5 999 10 16.0934 N/A
3:35 am 03:35 Cloudy 35 1.5 32 0 90 90 NNW 17 28 29.5 999 10 16.0934 N/A
3:55 am 03:55 Cloudy 35 1.4 32 0 91 91 NNW 14 22 29.53 1000 10 16.0934 N/A
4:15 am 04:15 Mostly Cloudy 34 1.2 32 -0.1 91 91 N 17 28 29.53 1000 10 16.0934 N/A
4:35 am 04:35 Clear 34 1.2 32 -0.1 91 91 NNW 17 28 29.53 1000 10 16.0934 N/A
4:55 am 04:55 Partly Cloudy 34 0.9 31 -0.5 90 90 NNW 13 20 29.56 1001 10 16.0934 N/A
5:15 am 05:15 Partly Cloudy 33 0.8 31 -0.5 91 91 NW 10 17 29.56 1001 10 16.0934 N/A
5:35 am 05:35 Mostly Cloudy 34 1 31 -0.5 90 90 WNW 14 22 29.56 1001 10 16.0934 N/A
5:55 am 05:55 Partly Cloudy 33 0.8 31 -0.6 90 90 NW 16 26 29.56 1001 10 16.0934 N/A
6:15 am 06:15 Clear 33 0.7 31 -0.6 91 91 NW 14 22 29.56 1001 10 16.0934 N/A
6:35 am 06:35 Clear 33 0.4 30 -1 90 90 NNW 10 17 29.59 1002 10 16.0934 N/A
6:55 am 06:55 Clear 32 0.1 30 -1 92 92 NNW 12 19 29.59 1002 10 16.0934 N/A
7:15 am 07:15 Mostly Cloudy 32 0.1 30 -0.9 93 93 NNW 12 19 29.59 1002 10 16.0934 N/A
7:35 am 07:35 Cloudy 33 0.3 31 -0.7 93 93 NNW 14 22 29.59 1002 10 16.0934 N/A
7:55 am 07:55 Cloudy 33 0.5 31 -0.7 92 92 NNW 18 30 29.62 1003 10 16.0934 N/A
8:15 am 08:15 Cloudy 33 0.3 30 -1 91 91 NW 15 24 29.59 1002 10 16.0934 N/A
8:35 am 08:35 Cloudy 33 0.5 31 -0.8 91 91 NNW 18 30 29.59 1002 10 16.0934 N/A
8:55 am 08:55 Cloudy 33 0.5 30 -0.9 90 90 NW 18 30 29.62 1003 10 16.0934 N/A
9:15 am 09:15 Partly Cloudy 32 0.2 30 -1.1 91 91 NNW 9 15 29.59 1002 10 16.0934 N/A
9:35 am 09:35 Partly Cloudy 34 1 31 -0.5 90 90 NW 10 17 29.62 1003 10 16.0934 N/A
9:55 am 09:55 Partly Cloudy 34 1.3 31 -0.5 88 88 NW 15 24 29.62 1003 10 16.0934 N/A
10:15 am 10:15 Partly Cloudy 35 1.9 31 -0.3 86 86 NW 15 24 29.65 1004 10 16.0934 N/A
10:35 am 10:35 Sunny 37 2.5 32 -0.2 83 83 NW 16 26 29.62 1003 10 16.0934 N/A
10:55 am 10:55 Sunny 38 3.1 32 0 80 80 NNW 13 20 29.62 1003 10 16.0934 N/A
11:15 am 11:15 Sunny 38 3.5 32 0 78 78 NW 13 20 29.62 1003 10 16.0934 N/A
11:35 am 11:35 Sunny 39 4 32 0.1 76 76 NW 13 20 29.62 1003 10 16.0934 N/A
11:55 am 11:55 Sunny 40 4.3 32 0 74 74 NW 14 22 29.62 1003 10 16.0934 N/A
12:15 pm 12:15 Sunny 41 4.9 33 0.3 72 72 NW 13 20 29.62 1003 10 16.0934 N/A
12:35 pm 12:35 Sunny 41 5.1 32 0.1 70 70 NNW 14 22 29.62 1003 10 16.0934 N/A
12:55 pm 12:55 Sunny 42 5.6 33 0.3 69 69 NW 16 26 29.65 1004 10 16.0934 N/A
1:15 pm 13:15 Sunny 43 5.9 32 0.2 67 67 NNW 13 20 29.59 1002 10 16.0934 N/A
1:35 pm 13:35 Sunny 43 6.2 33 0.3 66 66 NW 14 22 29.65 1004 10 16.0934 N/A
1:55 pm 13:55 Sunny 44 6.9 33 0.4 64 64 NW 12 19 29.62 1003 10 16.0934 N/A
2:15 pm 14:15 Sunny 44 6.4 32 0 64 64 N 10 17 29.59 1002 10 16.0934 N/A
2:35 pm 14:35 Sunny 44 6.5 32 -0.1 63 63 N 8 13 29.59 1002 10 16.0934 N/A
2:55 pm 14:55 Sunny 44 6.7 32 -0.1 62 62 NNW 9 15 29.62 1003 10 16.0934 N/A
3:15 pm 15:15 Sunny 44 6.6 32 -0.2 62 62 N 6 9 29.62 1003 10 16.0934 N/A
3:35 pm 15:35 Sunny 44 6.5 32 -0.1 63 63 NE 7 11 29.62 1003 10 16.0934 N/A
3:55 pm 15:55 Sunny 43 6.1 31 -0.3 64 64 NNE 8 13 29.65 1004 10 16.0934 N/A
4:15 pm 16:15 Sunny 42 5.5 31 -0.5 66 66 NE 8 13 29.65 1004 10 16.0934 N/A
4:35 pm 16:35 Sunny 40 4.6 31 -0.6 69 69 NE 6 9 29.68 1005 10 16.0934 N/A
4:55 pm 16:55 Sunny 38 3.5 30 -1 73 73 E 8 13 29.68 1005 10 16.0934 N/A
5:15 pm 17:15 Clear 36 2 29 -1.4 78 78 ENE 9 15 29.71 1006 10 16.0934 N/A
5:35 pm 17:35 Clear 34 1 29 -1.8 82 82 ENE 6 9 29.71 1006 10 16.0934 N/A
5:55 pm 17:55 Clear 31 -0.4 27 -2.6 85 85 ENE 9 15 29.74 1007 10 16.0934 N/A
6:15 pm 18:15 Clear 32 -0.1 28 -2.1 87 87 ENE 10 17 29.74 1007 10 16.0934 N/A
6:35 pm 18:35 Clear 31 -0.6 28 -2.4 88 88 ENE 8 13 29.77 1008 10 16.0934 N/A
6:55 pm 18:55 Clear 30 -1.2 27 -2.7 90 90 ENE 9 15 29.74 1007 10 16.0934 N/A
7:15 pm 19:15 Mostly Cloudy 31 -0.5 29 -1.7 92 92 ENE 9 15 29.77 1008 10 16.0934 N/A
7:35 pm 19:35 Cloudy 32 0 30 -1.2 92 92 ENE 15 24 29.74 1007 10 16.0934 N/A
7:55 pm 19:55 Cloudy 32 -0.1 30 -1.2 92 92 ENE 12 19 29.77 1008 10 16.0934 N/A
8:15 pm 20:15 Cloudy 31 -0.5 29 -1.5 93 93 ENE 15 24 29.77 1008 10 16.0934 N/A
8:35 pm 20:35 Cloudy 31 -0.8 29 -1.8 93 93 E 14 22 29.8 1009 10 16.0934 N/A
8:55 pm 20:55 Cloudy with Mist and Fog 30 -1 29 -1.8 94 94 ENE 12 19 29.8 1009 5 8.0467 N/A
9:15 pm 21:15 Cloudy with Mist and Fog 30 -1.1 29 -1.9 94 94 ENE 9 15 29.8 1009 1.25 2.011675 N/A
9:35 pm 21:35 Cloudy with Mist and Fog 30 -1.3 28 -2 95 95 ENE 9 15 29.8 1009 2 3.21868 N/A
9:55 pm 21:55 Cloudy with Mist and Fog 30 -1.1 29 -1.7 96 96 ENE 8 13 29.8 1009 1.25 2.011675 N/A
10:15 pm 22:15 Cloudy with Mist and Fog 30 -1 29 -1.6 96 96 E 10 17 29.8 1009 2 3.21868 N/A
10:35 pm 22:35 Cloudy with Mist and Fog 30 -1.1 29 -1.7 96 96 ENE 8 13 29.8 1009 3 4.82802 N/A
10:55 pm 22:55 Cloudy with Light Snow 30 -1.1 29 -1.7 96 96 ENE 9 15 29.8 1009 4 6.43736 N/A
11:15 pm 23:15 Cloudy with Mist and Fog 30 -1 29 -1.6 96 96 ENE 8 13 29.8 1009 5 8.0467 N/A
11:35 pm 23:35 Cloudy 30 -1 29 -1.6 96 96 E 7 11 29.8 1009 10 16.0934 N/A
11:55 pm 23:55 Cloudy with Mist and Fog 30 -1 29 -1.5 96 96 ENE 9 15 29.8 1009 5 8.0467 N/A

Powered by AerisWeather